Flag for United Kingdom Weather past 2 weeks in Canterbury, England, United Kingdom

Now
53 °F

Cool.


Feels Like: 53 °F
Forecast: 52 / 71 °F
Wind: 2 mph from East

Location: Manston

Current Time: Jul 31, 2015 at 1:13:05 AM

Latest Report: Jul 31, 2015 at 12:00 AM


Visibility: 19 mi

Pressure: 30.15 "Hg

Humidity: 87%

Dew point: 49 °F

Location of CanterburyLocation

Historic Weather in Canterbury — Graph

°F

Canterbury temperature yesterday

Maximum temperature yesterday: 65 °F (at 4:00 PM)
Minimum temperature yesterday: 53 °F (at 10:00 PM)
Average temperature yesterday: 57 °F

Past Weeks' High & Low Weather Summary

 TemperatureHumidityPressure
High75 °F (Jul 21, 1:00 PM)94% (Jul 16, 12:00 AM)30.15 "Hg (Jul 16, 12:00 AM)
Low49 °F (Jul 29, 6:00 AM)41% (Jul 18, 6:00 PM)29.44 "Hg (Jul 26, 11:00 PM)
Average62 °F72%29.87 "Hg
* Reported Midnight between Jul 15 and Jul 16 — Midnight between Jul 30 and Jul 31, Canterbury, Weather by CustomWeather, © 2015

Note: Actual official high and low records may vary slightly from our data, if they occured in-between our weather recording intervals... More about our weather records

Advertising

Canterbury weather history for previous 24 hours

 ConditionsComfort  
Time TempWeatherWind HumidityBarometerVisibility
12:00 AM
Fri, Jul 31
53 °FCool.2 mph87%30.15 "Hg19 mi
11:00 PM
Thu, Jul 30
54 °FCool.5 mph85%30.14 "Hg19 mi
10:00 PM53 °FCool.2 mph86%30.14 "Hg18 mi
9:00 PM55 °FCool.5 mph78%30.13 "Hg28 mi
8:00 PM60 °FSmoke.6 mph65%30.12 "Hg19 mi
7:00 PM61 °FCool.6 mph61%30.10 "Hg25 mi
6:00 PM60 °FCool.7 mph68%30.10 "Hg28 mi
5:00 PM59 °FLight freezing rain. Cloudy.16 mph72%30.10 "Hg14 mi
4:00 PM65 °FMild.12 mph49%30.08 "Hg25 mi
3:00 PM64 °FMild.10 mph52%30.08 "Hg25 mi
2:00 PM63 °FMild.10 mph54%30.07 "Hg12 mi
1:00 PM62 °FRefreshingly cool.12 mph54%30.06 "Hg25 mi
12:00 PM62 °FRefreshingly cool.13 mph57%30.06 "Hg12 mi
10:00 AM57 °FCool.12 mph75%30.04 "Hg14 mi
9:00 AM55 °FCool.12 mph81%30.03 "Hg17 mi
8:00 AM54 °FCool.10 mph83%30.02 "Hg16 mi
7:00 AM54 °FCool.10 mph85%30.00 "Hg19 mi
6:00 AM53 °FCool.9 mph86%29.99 "Hg17 mi
5:00 AM54 °FCool.7 mph86%29.98 "Hg28 mi
4:00 AM55 °FCool.7 mph87%29.98 "Hg17 mi
3:00 AM55 °FRain showers. Overcast.7 mph85%29.97 "Hg15 mi
2:00 AM56 °FCool.7 mph81%29.97 "Hg31 mi
1:00 AM56 °FCool.7 mph79%29.96 "Hg31 mi
Weather by CustomWeather, © 2015

See weather overviewHow to use our weather pages